TimeEDT,TemperatureF,Dew PointF,Humidity,Sea Level PressureIn,VisibilityMPH,Wind Direction,Wind SpeedMPH,Gust SpeedMPH,PrecipitationIn,Events,Conditions,WindDirDegrees,DateUTC
12:15 AM,61.7,55.4,80,30.24,10.0,Calm,Calm,-,N/A,,Scattered Clouds,0,2013-07-30 04:15:00
12:35 AM,59.7,55.0,84,30.24,10.0,Calm,Calm,-,N/A,,Scattered Clouds,0,2013-07-30 04:35:00
12:55 AM,60.1,55.2,84,30.24,10.0,Calm,Calm,-,N/A,,Scattered Clouds,0,2013-07-30 04:55:00
1:15 AM,59.2,55.2,87,30.24,10.0,Calm,Calm,-,N/A,,Mostly Cloudy,0,2013-07-30 05:15:00
1:35 AM,59.7,54.3,82,30.25,10.0,Calm,Calm,-,N/A,,Scattered Clouds,0,2013-07-30 05:35:00
1:55 AM,58.5,53.8,84,30.25,10.0,Calm,Calm,-,N/A,,Clear,0,2013-07-30 05:55:00
2:15 AM,58.1,54.3,87,30.25,10.0,Calm,Calm,-,N/A,,Clear,0,2013-07-30 06:15:00
2:35 AM,57.7,54.5,89,30.24,10.0,Calm,Calm,-,N/A,,Mostly Cloudy,0,2013-07-30 06:35:00
2:55 AM,56.8,53.6,89,30.25,10.0,Calm,Calm,-,N/A,,Mostly Cloudy,0,2013-07-30 06:55:00
3:15 AM,57.0,54.1,90,30.24,10.0,Calm,Calm,-,N/A,,Clear,0,2013-07-30 07:15:00
3:35 AM,54.7,51.8,90,30.25,7.0,Calm,Calm,-,N/A,,Clear,0,2013-07-30 07:35:00
3:55 AM,55.6,53.2,92,30.25,7.0,Calm,Calm,-,N/A,,Clear,0,2013-07-30 07:55:00
4:15 AM,54.9,52.0,90,30.25,10.0,Calm,Calm,-,N/A,,Clear,0,2013-07-30 08:15:00
4:35 AM,55.0,52.3,91,30.25,7.0,Calm,Calm,-,N/A,,Clear,0,2013-07-30 08:35:00
4:55 AM,54.3,51.8,91,30.25,7.0,Calm,Calm,-,N/A,,Clear,0,2013-07-30 08:55:00
5:15 AM,54.0,52.0,93,30.25,3.0,Calm,Calm,-,N/A,,Clear,0,2013-07-30 09:15:00
5:35 AM,52.3,50.5,94,30.25,1.8,Calm,Calm,-,N/A,,Scattered Clouds,0,2013-07-30 09:35:00
5:55 AM,52.2,49.8,92,30.26,10.0,Calm,Calm,-,N/A,,Clear,0,2013-07-30 09:55:00
6:15 AM,51.6,49.5,92,30.27,3.0,Calm,Calm,-,N/A,,Clear,0,2013-07-30 10:15:00
6:35 AM,52.0,50.4,94,30.28,0.5,Calm,Calm,-,N/A,Fog,Fog,0,2013-07-30 10:35:00
6:55 AM,51.4,49.8,94,30.28,4.0,Calm,Calm,-,N/A,,Scattered Clouds,0,2013-07-30 10:55:00
7:15 AM,54.5,52.7,94,30.29,5.0,Calm,Calm,-,N/A,,Clear,0,2013-07-30 11:15:00
7:35 AM,56.3,54.1,92,30.29,7.0,Calm,Calm,-,N/A,,Clear,0,2013-07-30 11:35:00
7:55 AM,57.4,54.1,89,30.29,10.0,Calm,Calm,-,N/A,,Clear,0,2013-07-30 11:55:00
8:15 AM,58.6,54.7,87,30.29,10.0,Calm,Calm,-,N/A,,Clear,0,2013-07-30 12:15:00
8:35 AM,60.8,55.4,82,30.29,10.0,Calm,Calm,-,N/A,,Clear,0,2013-07-30 12:35:00
8:55 AM,62.2,55.9,80,30.29,10.0,Calm,Calm,-,N/A,,Clear,0,2013-07-30 12:55:00
9:15 AM,64.4,55.9,74,30.29,10.0,Calm,Calm,-,N/A,,Clear,0,2013-07-30 13:15:00
9:35 AM,66.7,54.7,65,30.29,10.0,Calm,Calm,-,N/A,,Clear,0,2013-07-30 13:35:00
9:55 AM,68.5,54.5,61,30.29,10.0,Calm,Calm,-,N/A,,Clear,0,2013-07-30 13:55:00
10:15 AM,70.0,53.8,56,30.29,10.0,Calm,Calm,-,N/A,,Clear,0,2013-07-30 14:15:00
10:35 AM,72.0,52.3,50,30.28,10.0,Calm,Calm,-,N/A,,Clear,0,2013-07-30 14:35:00
10:55 AM,73.0,51.4,47,30.28,10.0,Calm,Calm,-,N/A,,Clear,0,2013-07-30 14:55:00
11:15 AM,74.5,53.6,48,30.28,10.0,ESE,4.6,-,N/A,,Clear,110,2013-07-30 15:15:00
11:35 AM,75.9,52.0,43,30.27,10.0,South,4.6,-,N/A,,Clear,190,2013-07-30 15:35:00
11:55 AM,76.3,49.6,39,30.27,10.0,ESE,3.5,-,N/A,,Scattered Clouds,120,2013-07-30 15:55:00
12:15 PM,76.3,49.3,39,30.26,10.0,Calm,Calm,-,N/A,,Scattered Clouds,0,2013-07-30 16:15:00
12:55 PM,75.7,48.2,38,30.26,10.0,SSE,5.8,-,N/A,,Clear,160,2013-07-30 16:55:00
1:15 PM,75.7,48.4,38,30.25,10.0,SSW,4.6,-,N/A,,Clear,200,2013-07-30 17:15:00
1:35 PM,76.3,50.0,40,30.25,10.0,SSE,3.5,-,N/A,,Clear,160,2013-07-30 17:35:00
2:15 PM,77.9,50.4,38,30.24,10.0,East,4.6,-,N/A,,Clear,100,2013-07-30 18:15:00
2:35 PM,78.3,50.2,37,30.23,10.0,Calm,Calm,-,N/A,,Scattered Clouds,0,2013-07-30 18:35:00
2:55 PM,79.3,50.0,36,30.23,10.0,ESE,5.8,-,N/A,,Scattered Clouds,120,2013-07-30 18:55:00
3:15 PM,79.5,51.1,37,30.22,10.0,SSE,5.8,-,N/A,,Scattered Clouds,160,2013-07-30 19:15:00
3:35 PM,80.1,51.1,36,30.22,10.0,SW,6.9,-,N/A,,Scattered Clouds,230,2013-07-30 19:35:00
3:55 PM,79.9,51.3,37,30.22,10.0,South,5.8,-,N/A,,Clear,190,2013-07-30 19:55:00
4:15 PM,79.7,52.0,38,30.21,10.0,SE,5.8,-,N/A,,Scattered Clouds,130,2013-07-30 20:15:00
4:35 PM,79.2,52.0,39,30.20,10.0,SE,6.9,-,N/A,,Scattered Clouds,140,2013-07-30 20:35:00
4:55 PM,78.8,52.7,40,30.20,10.0,South,4.6,-,N/A,,Clear,180,2013-07-30 20:55:00
5:15 PM,79.5,53.1,40,30.20,10.0,South,6.9,-,N/A,,Clear,190,2013-07-30 21:15:00
5:35 PM,79.2,53.6,41,30.20,10.0,South,5.8,-,N/A,,Clear,180,2013-07-30 21:35:00
5:55 PM,78.4,53.8,42,30.20,10.0,South,4.6,-,N/A,,Clear,180,2013-07-30 21:55:00
6:15 PM,77.9,54.3,44,30.20,10.0,SSE,5.8,-,N/A,,Scattered Clouds,160,2013-07-30 22:15:00
6:35 PM,77.4,56.1,48,30.20,10.0,SSE,8.1,-,N/A,,Overcast,160,2013-07-30 22:35:00
6:55 PM,76.1,57.6,53,30.20,10.0,SSE,3.5,-,N/A,,Mostly Cloudy,150,2013-07-30 22:55:00
7:15 PM,75.2,58.1,55,30.20,10.0,SSE,4.6,-,N/A,,Scattered Clouds,150,2013-07-30 23:15:00
7:35 PM,74.3,59.0,59,30.20,10.0,SSE,4.6,-,N/A,,Scattered Clouds,150,2013-07-30 23:35:00
7:55 PM,73.4,59.4,61,30.20,10.0,ESE,3.5,-,N/A,,Scattered Clouds,120,2013-07-30 23:55:00
8:15 PM,72.5,59.2,63,30.21,10.0,Calm,Calm,-,N/A,,Clear,0,2013-07-31 00:15:00
8:35 PM,70.9,59.5,67,30.21,10.0,Calm,Calm,-,N/A,,Scattered Clouds,0,2013-07-31 00:35:00
8:55 PM,70.5,59.7,69,30.20,10.0,Calm,Calm,-,N/A,,Scattered Clouds,0,2013-07-31 00:55:00
9:15 PM,70.2,59.5,69,30.20,10.0,Calm,Calm,-,N/A,,Mostly Cloudy,0,2013-07-31 01:15:00
9:35 PM,66.6,60.1,80,30.21,10.0,Calm,Calm,-,N/A,,Scattered Clouds,0,2013-07-31 01:35:00
9:55 PM,65.7,59.9,82,30.21,10.0,Calm,Calm,-,N/A,,Mostly Cloudy,0,2013-07-31 01:55:00
10:15 PM,65.5,60.3,83,30.21,10.0,Calm,Calm,-,N/A,,Scattered Clouds,0,2013-07-31 02:15:00
10:35 PM,65.7,60.1,82,30.21,10.0,Calm,Calm,-,N/A,,Clear,0,2013-07-31 02:35:00
10:55 PM,64.6,59.5,84,30.21,10.0,Calm,Calm,-,N/A,,Clear,0,2013-07-31 02:55:00
11:15 PM,63.5,59.2,86,30.21,10.0,Calm,Calm,-,N/A,,Clear,0,2013-07-31 03:15:00
11:35 PM,61.7,57.9,87,30.21,7.0,Calm,Calm,-,N/A,,Scattered Clouds,0,2013-07-31 03:35:00
11:55 PM,63.5,59.4,86,30.21,10.0,Calm,Calm,-,N/A,,Overcast,0,2013-07-31 03:55:00